Torna al catalogo

SBS 6

AttivoComunicazioniGEO
NORAD 20872·PAYLOAD·🇺🇸 United States

Lanciato Oct 12, 1990 da Guiana Space Centre

Loading…

TLE

AggiornatoSource: Space-Track

Epoca: Sep 14, 2026, 10:45 UTC

1 20872U 90091A   26257.44792763  .00000042  00000-0  00000-0 0  9998
2 20872  12.7713  28.0932 0008172 155.7200 207.9980  0.98990773 46988

Traccia SBS 6 in tempo reale con AllMySat

Download on the App Store